This demonstration page uses our WeatherBlox Daily Observations layout. Learn more.

Left ArrowRight Arrow

36.19886, -115.1175

Hourly Observations for April 24, 2021

Temp ( °F °C ) Dew Point ( °F °C ) Humidity (%) Winds ( mph kmh ) Pressure ( in mb ) Visibility ( mi km ) Precip ( " mm )
12:53 am 00:53 Clear 69 20.6 19 -7.2 15 15 E 3 6 29.77 1008 10 16 N/A
1:53 am 01:53 Clear 70 21.1 24 -4.4 18 18 S 9 15 29.76 1008 10 16 N/A
2:53 am 02:53 Clear 68 20 25 -3.9 20 20 ESE 6 9 29.76 1008 10 16 N/A
3:53 am 03:53 Clear 70 21.1 27 -2.8 20 20 S 17 28 29.75 1007 10 16 N/A
4:53 am 04:53 Clear 69 20.6 26 -3.3 20 20 SSE 14 22 29.76 1008 10 16 N/A
5:53 am 05:53 Clear 70 21.1 29 -1.7 22 22 S 16 26 29.75 1008 10 16 N/A
6:53 am 06:53 Sunny 68 20 30 -1.1 24 24 SE 7 11 29.77 1008 10 16 N/A
7:53 am 07:53 Sunny 70 21.1 33 0.6 26 26 E 7 11 29.78 1009 10 16 N/A
8:53 am 08:53 Sunny 73 22.8 32 undefined 22 22 E 9 15 29.78 1008 10 16 N/A
9:53 am 09:53 Sunny 77 25 27 -2.8 16 16 S 14 22 29.76 1008 10 16 N/A
10:53 am 10:53 Sunny 78 25.6 24 -4.4 13 13 SSW 18 30 29.73 1007 10 16 N/A
11:53 am 11:53 Sunny 82 27.8 22 -5.6 11 11 S 21 33 29.71 1006 10 16 N/A
12:53 pm 12:53 Sunny 85 29.4 19 -7.2 9 9 SSW 22 35 29.68 1005 10 16 N/A
1:53 pm 13:53 Sunny 86 30 21 -6.1 9 9 SSW 22 35 29.65 1004 10 16 N/A
2:53 pm 14:53 Sunny 87 30.6 23 -5 9 9 WSW 25 41 29.63 1003 10 16 N/A
3:53 pm 15:53 Sunny 87 30.6 19 -7.2 8 8 SSW 21 33 29.60 1002 10 16 N/A
4:53 pm 16:53 Sunny 84 28.9 18 -7.8 8 8 SSW 20 31 29.61 1003 10 16 N/A
5:53 pm 17:53 Sunny 84 28.9 24 -4.4 11 11 SSW 17 28 29.61 1003 10 16 N/A
6:53 pm 18:53 Sunny 81 27.2 26 -3.3 13 13 SSW 23 37 29.60 1002 10 16 N/A
7:53 pm 19:53 Clear 79 26.1 28 -2.2 15 15 SSW 21 33 29.60 1002 10 16 N/A
8:53 pm 20:53 Clear 77 25 28 -2.2 16 16 SSW 20 31 29.62 1003 10 16 N/A
9:53 pm 21:53 Clear 75 23.9 28 -2.2 18 18 SSW 24 39 29.62 1003 10 16 N/A
10:53 pm 22:53 Clear 73 22.8 27 -2.8 18 18 SSW 22 35 29.64 1004 10 16 N/A
11:53 pm 23:53 Clear 73 22.8 27 -2.8 18 18 SSW 16 26 29.64 1004 10 16 N/A

Powered by AerisWeather